Location: Buckenweiler
(49.0667°N, 10.2500°E)
Time: 07:05:04
(UTC+00:00)

NOSS 8 (E) - Pass Details

Date: 18 January 2026
Orbit: 364 x 1529 km, 63.3° (Epoch: 17 February)

Event Time Altitude Azimuth Distance (km) Brightness Sun altitude
Exits shadow 05:05:09 71° 211° (SSW) 427 4.1 -19.3°
Drops below altitude 10° 05:08:25 10° 146° (SE) 1,587 7.8 -18.7°
Sets 05:10:46 0° 144° (SE) 2,597 9.0 -18.3°
